STARLINK-4425 (53208 NORAD) Tracking and Keplerian Element Data

This shows tracking and keplerian element data for the satellite.

Feedback or suggestion? Click here.




ElementValue
Catalog53208
NameSTARLINK-4425
Epoch Orbit1072
Epoch Day270.16416069
Epoch Year2022
RAAN329.9916
Inclination97.6539
Eccentricity0.000233
Argument of Perigee107.2452
Mean Anonmoly252.9027
Mean Motion15.01263657
Decay Rate-1.144E-05
L11 53208U 22084V 22270.16416069 -.00001144 00000+0 -84457-4 0 9993
L22 53208 97.6539 329.9916 0002330 107.2452 252.9027 15.01263657 10720

Live tracking and technical data element details for STARLINK-4425 (NORAD 53208). STARLINK-4425 can be tracked NOW for your location showing map with azimuth and elevation plus other details from your city location.

Track the satellite on the map from your city or location and see movement details for azimuth, elevation, latitude, longitude, range, height, and movement on the map or in text.







IsCatalogInMostPopularTable: catalog: 53208, numindb: 4
Update: records affected: 1



GetName: 53208 STARLINK-4425

Hit Count: updated at: Wed, 28 Sep 2022 23:07:15 GMT